SCP
1 1 2 2 3 3 3 2 2 2 2 2 2 1 1 1 1 1 1 1 2 2 1 1 1 1 1 1 1 1 1 1 1 1 1 1 1 1 1 1 1 1 1
1 1 2 2 3 3 3 3 3 2 2 2 2 2 1 1 1 1 1 1 1 1 1 1 1 1 1 1 1 1 1 1 1 1 1 1 1 1 1 1 1 1 2
2 2 2 3 3 3 4 4 3 3 3 3 2 2 2 1 1 1 1 1 1 1 1 1 1 1 1 1 1 1 1 1 1 1 1 1 1 1 1 1 1 2 2
2 2 2 3 3 4 4 4 4 3 3 3 2 2 2 2 1 1 1 1 1 1 1 1 1 1 1 1 1 1 1 1 1 1 1 1 1 1 1 1 1 1 2
2 2 3 4 4 4 4 4 4 3 3 3 2 2 2 2 2 1 1 1 1 1 1 1 1 1 1 1 1 1 1 1 1 1 1 1 1 1 1 1 1 1 1
3 3 4 4 5 4 4 4 4 4 3 3 2 2 2 2 2 1 1 1 1 1 1 1 1 1 1 1 1 1 1 1 1 1 1 1 1 1 1 1 1 1 1
5 5 4 5 5 5 5 4 4 4 3 3 2 2 2 2 2 2 1 1 1 1 2 2 2 1 1 1 1 1 1 1 1 1 1 1 1 1 1 1 1 1 1
6 5 4 4 4 5 5 5 4 4 3 3 3 3 3 3 2 2 2 1 1 2 2 2 2 2 2 1 1 1 1 1 1 1 1 1 1 1 1 1 2 2 2
5 5 4 4 4 4 5 5 5 4 3 4 4 4 3 3 2 2 2 2 2 2 2 2 2 2 2 2 1 1 1 1 1 1 1 1 1 1 1 1 2 2 2
5 5 4 3 3 4 5 5 4 3 3 4 4 4 3 2 2 2 2 2 2 2 2 2 2 2 2 2 1 1 1 1 1 1 1 1 1 1 1 1 2 2 2
6 5 4 3 3 4 4 4 3 2 2 3 3 3 3 2 2 2 2 2 2 2 2 1 2 2 1 1 1 1 1 1 1 1 1 1 2 2 1 1 1 2 2
7 6 5 3 3 3 3 3 2 2 2 2 2 2 2 3 2 2 2 2 2 2 2 2 2 2 1 1 1 1 1 1 1 1 1 2 2 2 2 2 2 2 2
7 6 5 4 3 3 3 2 2 2 2 2 2 2 2 2 2 2 2 1 2 2 2 2 2 2 2 1 1 1 1 1 1 1 1 2 2 2 2 2 2 2 2
6 5 4 4 3 3 3 3 2 2 2 2 2 2 2 2 2 2 2 1 1 2 3 2 2 2 2 2 1 1 1 1 1 1 1 1 2 2 2 2 2 2 2
6 5 4 4 3 3 3 3 3 3 3 3 3 3 3 3 3 2 2 1 1 2 2 2 2 2 2 2 1 1 1 1 1 1 1 1 2 2 2 2 2 2 2
6 6 5 4 4 4 4 4 4 4 4 4 4 4 4 4 3 2 2 1 1 1 1 1 2 2 2 2 1 1 1 1 1 1 1 1 2 2 2 2 2 2 2
8 7 6 6 5 5 5 5 5 5 4 4 4 4 4 3 3 2 2 1 1 1 1 1 1 2 2 1 1 1 1 1 1 1 1 1 1 2 2 2 2 1 1
9 8 7 7 6 6 6 6 6 5 5 4 4 4 3 3 2 2 2 2 1 1 1 1 1 1 1 1 1 1 1 1 1 1 1 1 1 1 1 2 2 1 1
9 9 8 7 7 6 6 6 6 6 5 4 4 4 3 3 2 2 2 2 2 1 1 1 1 1 1 1 1 1 1 1 1 1 1 1 1 1 1 1 2 1 1
10 10 10 9 8 8 7 7 7 6 5 4 4 3 3 3 3 2 2 2 1 1 1 2 1 1 1 1 1 1 0 1 1 1 1 1 1 1 1 1 1 1 1
10 10 11 11 10 10 10 9 8 7 5 4 4 3 4 4 4 4 3 2 2 1 1 1 1 1 1 1 1 0 0 0 0 0 1 1 1 1 1 1 1 1 1
9 9 9 9 10 12 13 12 10 7 6 4 4 4 4 5 6 5 4 3 2 1 1 1 1 1 1 1 1 0 0 0 0 0 0 0 1 1 0 1 1 1 1
7 8 8 8 9 12 14 13 11 8 6 5 4 4 5 6 7 7 6 4 3 2 1 1 0 0 0 0 0 0 0 0 0 0 0 0 0 0 0 0 1 1 1
7 7 7 7 7 10 12 12 10 8 6 5 4 4 4 6 7 7 6 4 2 1 1 1 0 0 0 0 0 0 0 0 0 0 0 0 0 0 0 0 0 0 0
9 7 6 6 6 7 9 9 8 7 6 5 4 3 4 5 6 6 4 2 1 1 1 0 0 0 0 0 0 0 0 0 0 0 0 0 0 0 0 0 0 0 0
10 8 6 6 6 6 7 7 7 6 6 5 4 4 4 5 5 4 2 1 1 1 0 0 0 0 0 0 0 0 0 0 0 0 0 0 0 0 0 0 0 0 0
Wind_Speed
8 9 15 15 15 14 14 13 13 12 12 12 12 13 13 13 13 13 13 12 11 10 10 9 8 7 7 7 7 7 7 7 7 8 9 9 9 9 9 10 10 7 11
12 11 16 16 15 15 14 13 12 12 12 12 12 11 11 11 11 11 11 10 10 9 8 8 7 6 6 6 6 6 6 6 6 6 7 8 8 9 9 9 10 6 11
14 11 14 16 15 15 14 13 12 12 12 11 11 11 10 10 10 10 9 9 8 8 7 7 6 5 5 4 4 4 4 4 4 5 5 3 5 8 9 9 11 10 11
14 10 12 16 15 15 14 13 12 12 12 11 10 10 10 9 9 8 8 7 7 6 6 5 5 4 3 3 2 2 2 2 3 3 2 3 4 7 9 10 11 11 10
11 9 12 17 15 15 14 13 12 12 12 11 10 10 9 9 8 8 7 7 6 6 5 5 5 4 3 3 2 2 3 3 3 2 2 3 3 7 9 11 11 11 11
11 9 12 17 15 14 14 13 12 12 11 11 10 9 9 8 8 8 7 7 6 6 6 5 5 5 4 4 4 4 4 4 3 2 2 3 4 9 11 11 12 12 12
10 8 10 15 15 14 14 13 12 12 11 10 10 9 8 8 8 7 7 7 7 6 6 6 6 6 6 6 6 6 6 6 3 2 3 4 5 11 12 12 13 13 13
12 9 9 15 15 14 14 13 12 11 10 10 9 8 8 8 8 8 8 8 8 7 7 7 7 7 7 7 7 7 7 7 5 3 2 3 7 11 13 13 13 13 13
11 9 7 8 10 13 13 12 11 10 9 9 8 8 8 8 8 8 8 8 8 8 8 8 8 8 8 8 8 8 8 9 4 2 4 3 7 12 13 12 13 14 14
9 8 7 6 6 6 8 11 11 10 9 8 8 8 8 8 8 8 7 8 9 9 9 9 9 9 8 9 9 9 9 8 4 4 3 4 9 11 13 13 13 14 14
8 6 6 6 5 5 5 8 9 8 8 7 6 8 7 3 4 5 7 9 10 10 10 10 10 9 9 9 10 11 9 3 3 3 3 7 10 12 13 13 14 14 14
9 7 6 6 6 5 5 4 3 4 3 3 2 3 2 2 2 4 6 9 10 10 10 10 10 9 8 4 6 8 3 4 3 4 4 8 9 10 12 13 13 13 14
9 8 7 7 6 6 4 4 3 2 2 3 3 3 2 2 2 2 2 3 4 6 4 5 5 3 3 3 3 3 3 3 3 3 4 8 8 9 11 12 13 12 13
8 7 7 7 6 6 4 4 4 3 3 3 3 4 2 2 2 2 2 2 2 2 2 2 2 3 3 4 4 4 4 3 3 3 4 8 8 9 11 12 12 12 12
8 7 7 7 6 6 5 4 4 4 4 3 3 3 3 3 2 2 2 2 2 2 2 2 2 2 3 3 3 4 4 4 4 3 3 7 8 7 9 11 11 12 12
8 7 7 7 6 5 4 4 3 3 3 2 2 3 4 3 2 2 2 2 2 2 2 2 2 2 2 2 3 4 4 4 4 4 3 4 6 6 6 8 10 11 11
7 7 7 7 6 5 4 4 3 3 3 2 2 3 3 2 2 2 1 1 2 2 1 1 2 1 2 2 3 4 3 3 3 4 4 3 3 6 7 7 8 11 12
6 7 7 6 5 4 3 3 2 2 2 2 2 2 2 2 2 1 1 1 2 1 1 1 1 1 2 2 3 3 3 3 4 4 4 4 3 3 5 7 8 10 11
5 5 5 4 4 3 2 1 2 2 2 1 1 1 1 1 1 1 1 1 1 1 1 1 1 1 2 2 3 3 3 3 3 3 4 4 4 4 3 5 9 9 10
4 5 4 4 4 3 2 1 1 1 1 1 1 1 1 1 1 1 1 1 1 0 1 1 1 1 1 2 3 3 3 3 2 2 3 2 3 4 4 5 4 6 9
4 3 4 4 3 3 1 1 1 0 1 0 1 1 1 2 1 1 0 0 0 0 1 1 1 1 1 1 1 3 3 2 2 2 2 2 2 3 3 4 3 3 3
3 3 3 2 2 3 2 2 1 1 1 1 0 0 1 1 1 1 1 0 0 0 1 1 0 0 1 0 1 1 3 4 3 2 1 2 2 2 2 4 3 4 3
2 2 1 1 1 2 2 2 2 2 1 1 1 1 1 1 1 1 1 1 0 0 1 2 1 1 1 1 1 2 1 2 3 3 2 2 2 2 3 3 4 4 5
2 2 1 2 1 1 2 2 3 2 1 2 2 1 1 1 1 1 1 1 1 1 1 2 1 1 1 1 1 1 2 3 2 3 3 2 3 3 3 3 3 4 4
2 2 1 2 1 0 1 2 2 1 1 1 1 1 1 1 1 1 1 1 1 1 1 2 1 1 1 2 2 1 1 1 2 2 3 3 3 3 3 4 3 3 4
2 2 2 1 0 0 0 1 2 2 1 1 1 1 1 1 1 1 1 1 1 1 2 2 2 2 2 2 2 2 2 2 2 2 3 3 3 4 3 3 3 3 3
Wind_Direction
152 158 149 143 139 135 132 129 127 124 121 116 114 112 111 111 111 113 115 117 119 119 119 118 117 116 114 110 107 107 114 121 126 133 136 137 137 138 139 139 135 134 135
149 155 149 144 141 138 136 135 133 131 128 126 123 121 119 118 118 118 121 123 124 125 123 122 121 119 116 113 112 113 116 126 133 140 143 143 144 144 146 144 141 144 142
143 149 149 146 143 141 140 140 139 138 136 135 132 130 129 128 128 129 130 132 134 135 134 132 130 128 125 121 121 125 130 139 148 157 158 152 158 158 157 153 148 148 149
143 147 149 148 144 142 142 143 144 143 143 142 141 140 140 140 142 144 144 145 147 148 149 149 149 149 148 147 150 158 171 184 189 192 176 182 185 175 166 161 155 156 158
141 146 153 150 147 145 144 145 147 148 149 149 149 150 152 153 155 159 161 162 164 167 170 173 174 175 180 190 205 220 229 236 240 236 206 194 193 188 180 172 167 166 165
142 148 154 151 150 148 148 149 150 152 154 156 158 160 161 164 168 171 175 178 181 186 191 194 196 198 206 218 227 238 248 256 257 246 228 202 194 197 190 183 179 176 174
142 148 154 153 153 153 153 153 154 156 159 161 165 167 170 174 179 183 187 191 196 201 205 208 210 211 219 228 235 243 251 260 248 234 226 215 207 201 196 191 187 186 184
146 148 153 158 157 159 159 158 158 160 163 164 168 172 177 183 188 194 199 204 207 210 214 216 217 219 224 232 239 246 253 259 259 251 229 219 214 205 202 195 190 193 193
141 146 153 159 161 164 164 163 163 165 167 171 174 178 186 193 198 204 209 215 219 220 222 225 227 230 232 235 240 247 252 256 254 241 244 226 220 210 204 197 191 197 199
140 148 154 157 156 160 165 168 170 172 174 179 185 188 194 201 207 212 215 223 229 231 232 233 234 238 238 240 245 251 254 256 244 237 236 231 227 218 208 201 198 201 203
141 150 153 155 154 154 166 174 170 175 183 186 193 199 202 210 219 225 228 229 233 238 240 243 243 244 246 248 252 255 257 238 230 239 235 240 233 225 213 206 206 205 206
161 165 161 159 158 158 169 158 160 174 182 187 191 202 204 199 224 234 246 244 243 245 248 251 253 253 252 251 257 260 247 231 224 235 240 245 237 229 218 210 211 211 213
166 165 167 165 162 163 163 155 162 171 182 196 193 198 207 204 228 242 245 259 257 252 252 263 263 255 247 240 240 240 236 234 227 230 240 244 242 238 227 221 218 215 216
157 164 163 163 165 171 164 162 167 176 189 198 203 194 193 200 211 227 232 244 243 242 238 241 242 248 254 253 245 239 236 232 227 221 232 241 244 245 239 231 224 221 220
153 158 160 161 165 168 164 170 170 183 188 196 198 199 192 195 210 216 228 232 237 230 226 233 237 245 254 259 260 252 248 239 232 222 229 240 241 245 243 232 227 227 226
159 162 161 158 163 162 164 171 175 183 183 188 199 201 191 192 199 201 227 237 233 229 229 227 230 236 253 258 265 262 254 245 237 229 221 231 228 227 233 235 228 229 230
165 162 163 164 159 157 161 173 168 173 174 183 198 202 193 192 192 192 209 233 243 242 235 234 252 259 273 274 276 275 267 257 245 232 226 218 219 220 225 238 239 233 231
165 163 166 159 149 149 155 166 160 162 162 176 185 194 192 196 186 185 211 240 247 240 231 237 255 264 275 276 274 271 271 268 260 237 226 218 213 218 226 234 243 244 240
164 154 147 137 137 147 147 169 142 139 152 169 168 182 194 192 183 185 231 251 242 224 233 255 256 228 262 282 277 271 272 269 262 257 237 222 213 205 210 230 242 246 246
133 130 132 118 119 125 136 119 96 101 124 142 176 185 169 185 196 185 216 255 242 213 289 271 256 256 248 268 286 294 279 266 257 256 248 230 219 213 212 224 236 246 247
99 112 120 114 131 136 130 135 138 171 209 205 216 193 184 193 182 159 169 301 10 219 255 257 255 281 276 308 334 314 304 283 267 259 249 231 230 233 223 222 224 227 247
108 118 122 132 139 146 163 169 160 152 227 218 264 311 252 205 176 149 139 155 298 310 308 289 266 275 280 322 139 342 327 325 312 285 270 245 255 258 251 243 232 228 232
107 108 145 153 132 134 132 110 82 66 20 347 316 282 266 228 189 163 161 171 238 221 272 280 255 203 263 277 180 161 186 259 302 309 291 278 278 272 265 257 244 240 236
117 108 100 95 87 107 123 134 140 150 198 241 251 257 285 273 250 208 192 212 239 235 252 265 255 226 200 256 276 217 205 200 225 299 308 293 281 273 268 267 261 256 246
123 117 107 81 80 87 135 144 140 173 231 252 263 262 280 283 284 281 227 225 254 256 261 265 263 246 217 215 222 236 253 248 210 215 278 299 301 278 259 254 253 256 252
123 127 139 141 172 251 157 149 154 186 219 239 265 261 268 286 290 278 249 234 238 245 254 255 252 250 243 237 235 217 215 227 234 217 242 268 281 284 281 265 252 253 250